Zurück zum Katalog

STARLINK-32628

AktivKommunikationVLEO
NORAD 62122·PAYLOAD·🇺🇸 United States

Gestartet Nov 27, 2024 von Cape Canaveral Space Force Station

Loading…

Nächste Überflüge (nächste 24 Stunden)

TLE

AktuellSource: CelesTrak SupGP

Epoche: Sep 15, 2026, 03:42 UTC

1 62122C 24222J   26258.15465278  .00051958  00000+0  18821-2 0  2583
2 62122  43.0021 146.1494 0001490 274.1099 158.3989 15.27550280    19

Verfolge STARLINK-32628 in Echtzeit mit AllMySat

Download on the App Store